User: anonymous   Login
Location: Unspecified
(0.0000°N, 0.0000°E)
Time: 16:19:05
(UTC+00:00)
Language:

Vela 3B - Orbit

View from above orbital plane
View from above orbital plane
View from above satellite
View from above satellite

Ground track
Ground track

The orbit data is extracted from the following two-line orbital elements,

1 01459U 65058B   16182.59860312 -.00000682  00000-0  00000+0 0  9991
2 01459   7.4395  64.2784 4467754 292.3482 359.2671  0.21422103 40256
Epoch (UTC): 30 June 2016 14:21:59
Eccentricity: 0.4467754
inclination: 7.4395°
perigee height: 58893 km
apogee height: 164318 km
right ascension of ascending node: 64.2784°
argument of perigee: 292.3482°
revolutions per day: 0.21422103
mean anomaly at epoch: 359.2671°
orbit number at epoch: 4025

The dashed part of the orbit path shows where the satellite is in the earth's shadow,  

DLR